Location: Ohmer (historical)
(38.0096°N, 122.0227°W)
Time: 06:49:28
(UTC+00:00)

Cosmos 2227 Rocket - Pass Details

Date: 14 February 2026
Orbit: 836 x 845 km, 71.0° (Epoch: 9 March)

Event Time Altitude Azimuth Distance (km) Brightness Sun altitude
Exits shadow 12:20:29 30° 11° (N) 1,483 3.5 -31.8°
Maximum altitude 12:22:49 45° 63° (ENE) 1,142 3.1 -31.3°
Drops below altitude 10° 12:28:12 10° 135° (SE) 2,459 5.0 -30.3°
Sets 12:30:45 0° 142° (SE) 3,390 5.7 -29.8°
